Home   Weather   Manama   Past weeks
Flag for Bahrain

Past Weather in Manama, Bahrain — Yesterday and Last 2 Weeks

Now
88 °F

Clear.


Feels Like: 93 °F
Forecast: 95 / 84 °F
Wind: 6 mph from Southeast

Location: Bahrain International Airport

Current Time: May 21, 2019 at 11:54:35 pm

Latest Report: May 21, 2019 at 11:00 pm


Visibility: 10 mi

Pressure: 29.83 "Hg

Humidity: 55%

Dew Point: 70 °F

Location of ManamaLocation

Past Weather in Manama — Graph

°F

Manama Temperature Yesterday

Maximum temperature yesterday: 90 °F (at 8:00 am)
Minimum temperature yesterday: 79 °F (at 5:00 am)
Average temperature yesterday: 86 °F

High & Low Weather Summary for the Past Weeks

 TemperatureHumidityPressure
High104 °F (May 15, 12:00 pm)84% (May 16, 4:30 am)29.86 "Hg (May 16, 4:30 am)
Low79 °F (May 20, 5:00 am)11% (May 15, 12:00 pm)29.62 "Hg (May 9, 4:30 pm)
Average88 °F44%29.73 "Hg
* Reported May 6 10:00 pm — May 21 10:30 pm, Manama. Weather by CustomWeather, © 2019

Note: Actual official high and low records may vary slightly from our data, if they occured in-between our weather recording intervals... More about our weather records

Advertising

Manama Weather History for the Previous 24 Hours

Scroll right to see more
 ConditionsComfort  
Time TempWeatherWind HumidityBarometerVisibility
10:30 pm
Tue, May 21
86 °FClear.6 mph62%29.83 "Hg10 mi
10:00 pm88 °FClear.6 mph55%29.83 "Hg10 mi
9:30 pm88 °FClear.5 mph59%29.83 "Hg10 mi
9:00 pm88 °FClear.3 mph55%29.83 "Hg10 mi
8:30 pm88 °FClear.3 mph49%29.83 "Hg10 mi
8:00 pm88 °FClear.5 mph49%29.80 "Hg10 mi
7:30 pm88 °FClear.5 mph49%29.80 "Hg5 mi
7:00 pm88 °FClear.7 mph46%29.80 "Hg5 mi
6:30 pm90 °FClear.8 mph46%29.80 "Hg4 mi
6:00 pm88 °FSunny.9 mph59%29.80 "Hg4 mi
5:30 pm90 °FSunny.8 mph46%29.80 "Hg4 mi
5:00 pm90 °FClear.10 mph49%29.80 "Hg4 mi
4:30 pm90 °FClear.10 mph46%29.77 "Hg4 mi
4:00 pm91 °FClear.10 mph44%29.80 "Hg4 mi
3:30 pm91 °FClear.10 mph38%29.80 "Hg4 mi
3:00 pm93 °FClear.10 mph34%29.80 "Hg4 mi
2:30 pm91 °FClear.10 mph34%29.80 "Hg4 mi
2:00 pm91 °FClear.9 mph41%29.80 "Hg4 mi
1:30 pm93 °FClear.10 mph39%29.80 "Hg4 mi
1:00 pm93 °FClear.9 mph34%29.80 "Hg4 mi
12:30 pm95 °FClear.7 mph32%29.83 "Hg4 mi
12:00 pm95 °FClear.6 mph26%29.83 "Hg4 mi
11:30 am95 °FClear.7 mph25%29.83 "Hg4 mi
10:30 am91 °FClear.7 mph34%29.86 "Hg4 mi
10:00 am91 °FDuststorm.6 mph34%29.86 "Hg3 mi
9:30 am90 °FDuststorm.10 mph41%29.83 "Hg3 mi
9:00 am91 °FDuststorm.6 mph38%29.83 "Hg3 mi
8:30 am90 °FDuststorm.6 mph41%29.83 "Hg3 mi
8:00 am88 °FDuststorm.9 mph46%29.86 "Hg3 mi
7:30 am88 °FDuststorm.9 mph46%29.86 "Hg3 mi
7:00 am88 °FClear.6 mph49%29.83 "Hg4 mi
6:30 am86 °FClear.8 mph62%29.80 "Hg4 mi
6:00 am84 °FClear.7 mph70%29.80 "Hg4 mi
5:30 am84 °FClear.6 mph74%29.80 "Hg4 mi
5:00 am84 °FDuststorm.6 mph74%29.77 "Hg3 mi
4:30 am84 °FDuststorm.8 mph62%29.77 "Hg3 mi
4:00 am84 °FDuststorm.7 mph58%29.77 "Hg3 mi
3:30 am84 °FDuststorm.2 mph62%29.77 "Hg3 mi
3:00 am86 °FDuststorm.3 mph55%29.77 "Hg3 mi
2:30 am84 °FDuststorm.5 mph62%29.77 "Hg3 mi
2:00 am86 °FClear.5 mph55%29.77 "Hg3 mi
1:30 am86 °FClear.5 mph55%29.77 "Hg3 mi
1:00 am86 °FDuststorm.3 mph52%29.77 "Hg3 mi
12:30 am88 °FDuststorm.8 mph46%29.77 "Hg3 mi
12:00 am88 °FDuststorm.5 mph43%29.77 "Hg2 mi
11:30 pm
Mon, May 20
88 °FDuststorm.5 mph40%29.77 "Hg2 mi
11:00 pm88 °FDuststorm.3 mph43%29.80 "Hg2 mi
Weather by CustomWeather, © 2019

See weather overview